星链-34867 (STARLINK-34867)

导读

STARLINK-34867是美国SpaceX公司星链(Starlink)星座的第二代低轨卫星,于2025年9月3日发射入轨,属于全球规模最大的低轨卫星互联网组网工程的一部分。星链星座旨在为全球提供高速低延迟宽带互联网服务,重点覆盖传统基础设施匮乏的偏远地区。作为星链规模化扩张阶段的组网卫星,它参与提升了星座全球覆盖能力,助力增强网络容量与服务稳定性,推动星链在应急通信、航空航海、偏远地区联网等场景的应用落地。

Basic Information
目录编号:
65459
目录名称:
STARLINK-34867
国际标识:
2025-195B
轨道中心:
EARTH
卫星名称:
星链-34867
卫星全名:
星链-34867 (STARLINK-34867)
卫星状态:
在轨 (已飞行375 天)
发射日期:
2025-09-03 UTC
国别 :
美国 (US)
星等 :
--
This satellite is enrolled in the Space Conjunction Data Service (SCDS) and the current flight risk assessment level is: No High Risk
Orbit Information
数据来源 国际轨道数据
星历时间: 2026-09-12T07:20:48+0800
1天前
查看轨道信息
半长轴: 6840.874km
偏心率: 0.000082
轨道倾角: 53.156°
近地点辐角 73.102°
升交点赤经 109.433°
平近点角 287.007°
近地点: 462.176km
远地点: 463.298km
周期: 93.848分钟
每日圈数: 15.343888
Detailed Information
固有亮度:
5
最大亮度:
2.5
卫星平台:
Starlink V1.0
覆盖范围:
全球
运营商:
太空探索技术公司
运营商所在国:
美国
制造商(研发单位):
太空探索技术公司
制造商所在国:
美国
使用方式:
暂无
Satellite Introduction
Starlink 计划是 SpaceX 推出的全球卫星互联网项目,通过发射低轨道卫星,为全球尤其是偏远地区提供高速、低延迟的互联网服务。自 2019 年起,Starlink 已部署数千颗卫星,旨在缩小全球数字鸿沟,推动互联网普及。该项目还为军事、航空等行业提供通信支持,带来广泛经济效益。
2D Orbit Map
3D Orbit Map
Orbit Altitude Analysis Chart
Orbit Inclination Analysis Chart
Orbit Comprehensive Analysis Chart
View Comprehensive Chart
Conjunction Data List
Event ID Objects TCA Miss Dist (km) Collision Risk Probability Collision Risk Index (CRI) Action
CDM_260915-003805-794206-545921
2026-09-15T
00:38:54+0000
2.967 km
极远距离
1.145391E-6 低风险 0.36
CDM_260913-021505-235306-545921
2026-09-13T
02:15:33+0000
2.729 km
极远距离
7.441956E-7 极低风险 0.32
CDM_260913-012805-235306-545921
2026-09-13T
01:28:39+0000
2.754 km
极远距离
7.346806E-7 极低风险 0.32
Miss Distance Evolution Trend with All Objects
Collision Probability Evolution Trend with All Objects